Location: Kalberh�ni
(46.4610°N, 7.2453°E)
Time: 20:27:50
(UTC+00:00)

USA 229 - Pass Details

Date: 24 October 2021
Orbit: 946 x 1266 km, 63.4° (Epoch: 25 November)

Event Time Altitude Azimuth Distance (km) Brightness Sun altitude
Exits shadow 03:40:14 38° 222° (SW) 1,783 4.4 -24.8°
Drops below altitude 10° 03:46:06 10° 178° (S) 3,222 6.1 -23.8°
Sets 03:49:07 0° 171° (S) 4,201 6.8 -23.3°
